| time (UTC) | temp F | wind direction | speed MPH | gust MPH | rain 1hr in | rain 24hr in | rain mn in | humidity % | barometer mb |
| 20260904092213 | 78 | 201 | 0.0 | 0.0 | 0.00 | 0.00 | 0.00 | 99 | 972.6 |
| 20260904091709 | 78 | 195 | 0.0 | 0.0 | 0.00 | 0.00 | 0.00 | 99 | 972.8 |
| 20260904091203 | 78 | 180 | 0.0 | 0.0 | 0.00 | 0.00 | 0.00 | 99 | 972.7 |
| 20260904090659 | 77 | 204 | 0.0 | 0.0 | 0.00 | 0.00 | 0.00 | 99 | 972.7 |
| 20260904090154 | 77 | 189 | 0.0 | 0.0 | 0.00 | 0.00 | 0.00 | 99 | 972.7 |
| 20260904085650 | 77 | 189 | 0.0 | 0.0 | 0.00 | 0.00 | 0.00 | 99 | 972.8 |
| 20260904085149 | 77 | 180 | 0.0 | 0.0 | 0.00 | 0.00 | 0.00 | 99 | 972.9 |
| 20260904084639 | 77 | 189 | 0.0 | 0.0 | 0.00 | 0.00 | 0.00 | 99 | 973.0 |
| 20260904084136 | 78 | 211 | 0.0 | 0.0 | 0.00 | 0.00 | 0.00 | 99 | 973.0 |
| 20260904083632 | 78 | 212 | 0.0 | 0.0 | 0.00 | 0.00 | 0.00 | 99 | 973.1 |
| 20260904083127 | 77 | 212 | 0.0 | 0.0 | 0.00 | 0.00 | 0.00 | 99 | 973.2 |
| 20260904082622 | 77 | 211 | 0.0 | 0.0 | 0.00 | 0.00 | 0.00 | 99 | 973.1 |
| 20260904082118 | 77 | 202 | 0.0 | 0.0 | 0.00 | 0.00 | 0.00 | 99 | 973.4 |
| 20260904081613 | 76 | 205 | 0.0 | 0.0 | 0.00 | 0.00 | 0.00 | 99 | 973.4 |
| 20260904081108 | 76 | 212 | 0.0 | 0.0 | 0.00 | 0.00 | 0.00 | 99 | 973.4 |
| 20260904080604 | 75 | 212 | 0.0 | 0.0 | 0.00 | 0.00 | 0.00 | 99 | 973.6 |
| 20260904080100 | 75 | 201 | 0.0 | 0.0 | 0.00 | 0.00 | 0.00 | 99 | 973.6 |
| 20260904075555 | 75 | 186 | 0.0 | 0.0 | 0.00 | 0.00 | 0.00 | 99 | 973.7 |
| 20260904075050 | 75 | 159 | 0.0 | 0.0 | 0.00 | 0.00 | 0.00 | 99 | 973.4 |
| 20260904074549 | 75 | 214 | 0.0 | 0.0 | 0.00 | 0.00 | 0.00 | 99 | 973.5 |
| 20260904074044 | 74 | 214 | 0.0 | 0.0 | 0.00 | 0.00 | 0.00 | 99 | 973.6 |
| 20260904073539 | 75 | 214 | 0.0 | 0.0 | 0.00 | 0.00 | 0.00 | 99 | 973.6 |
| 20260904073035 | 74 | 214 | 0.0 | 0.0 | 0.00 | 0.00 | 0.00 | 99 | 973.7 |
| 20260904072531 | 75 | 219 | 0.0 | 0.0 | 0.00 | 0.00 | 0.00 | 99 | 973.6 |
| 20260904072026 | 74 | 214 | 0.0 | 0.0 | 0.00 | 0.00 | 0.00 | 99 | 973.6 |
| 20260904071522 | 74 | 216 | 0.0 | 0.0 | 0.00 | 0.00 | 0.00 | 99 | 974.0 |
| 20260904071016 | 74 | 219 | 0.0 | 0.0 | 0.00 | 0.00 | 0.00 | 99 | 974.3 |
| 20260904070515 | 74 | 216 | 0.0 | 0.0 | 0.00 | 0.00 | 0.00 | 99 | 974.2 |
| 20260904070010 | 74 | 219 | 0.0 | 0.0 | 0.00 | 0.00 | 0.00 | 99 | 974.4 |
| 20260904065505 | 74 | 214 | 0.0 | 0.0 | 0.00 | 0.00 | 0.00 | 99 | 974.5 |
| 20260904065001 | 75 | 214 | 0.0 | 0.0 | 0.00 | 0.00 | 0.00 | 99 | 974.4 |
| 20260904064456 | 74 | 218 | 0.0 | 0.0 | 0.00 | 0.00 | 0.00 | 99 | 974.7 |
| 20260904063951 | 74 | 215 | 0.0 | 0.0 | 0.00 | 0.00 | 0.00 | 99 | 974.8 |
| 20260904063448 | 75 | 206 | 0.0 | 0.0 | 0.00 | 0.00 | 0.00 | 99 | 974.5 |
| 20260904062943 | 76 | 185 | 0.0 | 0.0 | 0.00 | 0.00 | 0.00 | 99 | 974.7 |
| 20260904062439 | 76 | 154 | 0.0 | 0.0 | 0.00 | 0.00 | 0.00 | 99 | 974.4 |
| 20260904061934 | 76 | 153 | 0.0 | 1.0 | 0.00 | 0.00 | 0.00 | 99 | 974.1 |
| 20260904061431 | 76 | 60 | 1.0 | 2.0 | 0.00 | 0.00 | 0.00 | 99 | 974.3 |
| 20260904060926 | 77 | 67 | 2.0 | 3.0 | 0.00 | 0.00 | 0.00 | 99 | 974.3 |
| 20260904060422 | 77 | 74 | 1.0 | 2.0 | 0.00 | 0.00 | 0.00 | 99 | 974.5 |
| 20260904055917 | 78 | 61 | 2.0 | 2.0 | 0.00 | 0.00 | 0.00 | 99 | 974.7 |
| 20260904055413 | 79 | 174 | 0.0 | 0.0 | 0.00 | 0.00 | 0.00 | 99 | 974.7 |
| 20260904054909 | 79 | 173 | 0.0 | 0.0 | 0.00 | 0.00 | 0.00 | 99 | 974.8 |
| 20260904054404 | 80 | 173 | 0.0 | 0.0 | 0.00 | 0.00 | 0.00 | 99 | 974.7 |
| 20260904053900 | 80 | 173 | 0.0 | 0.0 | 0.00 | 0.00 | 0.00 | 99 | 974.6 |
| 20260904053358 | 79 | 169 | 0.0 | 0.0 | 0.00 | 0.00 | 0.00 | 99 | 974.7 |
| 20260904052855 | 79 | 169 | 0.0 | 0.0 | 0.00 | 0.00 | 0.00 | 99 | 974.7 |
| 20260904052351 | 79 | 171 | 0.0 | 0.0 | 0.00 | 0.00 | 0.00 | 99 | 975.3 |
| 20260904051847 | 80 | 164 | 0.0 | 0.0 | 0.00 | 0.00 | 0.00 | 99 | 974.9 |
| 20260904051343 | 80 | 173 | 0.0 | 0.0 | 0.00 | 0.00 | 0.00 | 99 | 974.9 |
| 20260904050837 | 79 | 173 | 0.0 | 0.0 | 0.00 | 0.00 | 0.00 | 99 | 975.0 |
| 20260904050334 | 79 | 173 | 0.0 | 0.0 | 0.00 | 0.00 | 0.00 | 99 | 975.2 |
| 20260904045833 | 80 | 173 | 0.0 | 0.0 | 0.00 | 0.00 | 0.00 | 99 | 975.2 |
| 20260904045328 | 80 | 173 | 0.0 | 0.0 | 0.00 | 0.00 | 0.00 | 99 | 975.4 |
| 20260904044823 | 80 | 172 | 0.0 | 0.0 | 0.00 | 0.00 | 0.00 | 99 | 975.4 |
| 20260904044320 | 80 | 173 | 0.0 | 0.0 | 0.00 | 0.00 | 0.00 | 99 | 975.7 |
| 20260904043815 | 80 | 173 | 0.0 | 0.0 | 0.00 | 0.00 | 0.00 | 99 | 975.6 |
| 20260904043312 | 80 | 173 | 0.0 | 0.0 | 0.00 | 0.00 | 0.00 | 99 | 975.6 |
| 20260904042806 | 80 | 170 | 0.0 | 0.0 | 0.00 | 0.00 | 0.00 | 99 | 975.8 |
| 20260904042306 | 79 | 173 | 0.0 | 0.0 | 0.00 | 0.00 | 0.00 | 99 | 975.8 |
| 20260904041802 | 78 | 174 | 0.0 | 0.0 | 0.00 | 0.00 | 0.00 | 99 | 975.8 |
| 20260904041259 | 79 | 174 | 0.0 | 0.0 | 0.00 | 0.00 | 0.00 | 99 | 976.0 |
| 20260904040754 | 79 | 172 | 0.0 | 0.0 | 0.00 | 0.00 | 0.00 | 99 | 976.1 |
| 20260904040249 | 78 | 174 | 0.0 | 0.0 | 0.00 | 0.00 | 0.00 | 99 | 975.8 |
| 20260904035746 | 79 | 174 | 0.0 | 0.0 | 0.00 | 0.00 | 0.00 | 99 | 976.1 |
| 20260904035241 | 78 | 174 | 0.0 | 0.0 | 0.00 | 0.00 | 0.00 | 99 | 976.2 |
| 20260904034740 | 78 | 174 | 0.0 | 0.0 | 0.00 | 0.00 | 0.00 | 99 | 976.2 |
| 20260904034236 | 78 | 174 | 0.0 | 0.0 | 0.00 | 0.00 | 0.00 | 99 | 976.2 |
| 20260904033731 | 78 | 174 | 0.0 | 0.0 | 0.00 | 0.00 | 0.00 | 99 | 976.0 |
| 20260904033228 | 78 | 174 | 0.0 | 0.0 | 0.00 | 0.00 | 0.00 | 99 | 976.3 |
| 20260904032724 | 78 | 174 | 0.0 | 0.0 | 0.00 | 0.00 | 0.00 | 99 | 976.4 |
| 20260904032222 | 78 | 171 | 0.0 | 0.0 | 0.00 | 0.00 | 0.00 | 99 | 976.2 |
| 20260904031717 | 79 | 174 | 0.0 | 0.0 | 0.00 | 0.00 | 0.00 | 99 | 976.5 |
| 20260904031213 | 78 | 174 | 0.0 | 0.0 | 0.00 | 0.00 | 0.00 | 99 | 976.4 |
| 20260904030709 | 78 | 174 | 0.0 | 0.0 | 0.00 | 0.00 | 0.00 | 99 | 976.4 |
| 20260904030204 | 78 | 174 | 0.0 | 0.0 | 0.00 | 0.00 | 0.00 | 99 | 976.4 |
| 20260904025700 | 78 | 173 | 0.0 | 0.0 | 0.00 | 0.00 | 0.00 | 99 | 976.4 |
| 20260904025154 | 77 | 173 | 0.0 | 0.0 | 0.00 | 0.00 | 0.00 | 99 | 976.5 |
| 20260904024650 | 77 | 171 | 0.0 | 0.0 | 0.00 | 0.00 | 0.00 | 99 | 976.6 |
| 20260904024146 | 78 | 172 | 0.0 | 0.0 | 0.00 | 0.00 | 0.00 | 99 | 976.6 |
| 20260904023642 | 78 | 173 | 0.0 | 0.0 | 0.00 | 0.00 | 0.00 | 99 | 976.8 |
| 20260904023137 | 78 | 169 | 0.0 | 0.0 | 0.00 | 0.00 | 0.00 | 99 | 976.8 |
| 20260904022631 | 78 | 174 | 0.0 | 0.0 | 0.00 | 0.00 | 0.00 | 99 | 976.7 |
| 20260904022128 | 78 | 169 | 0.0 | 0.0 | 0.00 | 0.00 | 0.00 | 99 | 976.7 |
| 20260904021623 | 78 | 173 | 0.0 | 0.0 | 0.00 | 0.00 | 0.00 | 99 | 976.7 |
| 20260904014058 | 78 | 174 | 0.0 | 0.0 | 0.00 | 0.00 | 0.00 | 99 | 976.5 |
| 20260904013554 | 78 | 174 | 0.0 | 0.0 | 0.00 | 0.00 | 0.00 | 99 | 976.5 |
| 20260904013050 | 77 | 174 | 0.0 | 0.0 | 0.00 | 0.00 | 0.00 | 99 | 976.4 |
| 20260904012550 | 77 | 173 | 0.0 | 0.0 | 0.00 | 0.00 | 0.00 | 99 | 976.6 |
| 20260904012044 | 77 | 174 | 0.0 | 0.0 | 0.00 | 0.00 | 0.00 | 99 | 976.4 |
| 20260904011543 | 77 | 174 | 0.0 | 0.0 | 0.00 | 0.00 | 0.00 | 99 | 976.4 |
| 20260904011039 | 77 | 174 | 0.0 | 0.0 | 0.00 | 0.00 | 0.00 | 99 | 976.4 |
| 20260904010535 | 77 | 174 | 0.0 | 0.0 | 0.00 | 0.00 | 0.00 | 99 | 976.2 |
| 20260904010031 | 77 | 174 | 0.0 | 0.0 | 0.00 | 0.00 | 0.00 | 99 | 976.2 |
| 20260904005526 | 77 | 174 | 0.0 | 0.0 | 0.00 | 0.00 | 0.00 | 99 | 976.0 |
| 20260904005021 | 77 | 173 | 0.0 | 0.0 | 0.00 | 0.00 | 0.00 | 99 | 976.1 |
| 20260904004516 | 77 | 173 | 0.0 | 0.0 | 0.00 | 0.00 | 0.00 | 99 | 975.9 |
| 20260904004011 | 76 | 174 | 0.0 | 0.0 | 0.00 | 0.00 | 0.00 | 99 | 975.8 |
| 20260904003507 | 76 | 174 | 0.0 | 0.0 | 0.00 | 0.00 | 0.00 | 99 | 975.8 |
| 20260904003002 | 76 | 174 | 0.0 | 0.0 | 0.00 | 0.00 | 0.00 | 99 | 975.7 |
| 20260904002458 | 76 | 174 | 0.0 | 0.0 | 0.00 | 0.00 | 0.00 | 99 | 975.6 |
| 20260904001956 | 76 | 175 | 0.0 | 0.0 | 0.00 | 0.00 | 0.00 | 99 | 975.5 |
| 20260904001453 | 76 | 175 | 0.0 | 0.0 | 0.00 | 0.00 | 0.00 | 99 | 975.6 |
| 20260904000946 | 76 | 175 | 0.0 | 0.0 | 0.00 | 0.00 | 0.00 | 99 | 975.3 |
| 20260904000447 | 76 | 175 | 0.0 | 0.0 | 0.00 | 0.00 | 0.00 | 99 | 975.3 |
| 20260903235942 | 76 | 175 | 0.0 | 0.0 | 0.00 | 0.00 | 0.00 | 99 | 975.2 |
| 20260903235437 | 76 | 175 | 0.0 | 0.0 | 0.00 | 0.00 | 0.00 | 99 | 975.1 |
| 20260903234932 | 76 | 175 | 0.0 | 0.0 | 0.00 | 0.00 | 0.00 | 99 | 975.1 |
| 20260903234428 | 76 | 175 | 0.0 | 0.0 | 0.00 | 0.00 | 0.00 | 99 | 975.0 |
| 20260903233924 | 76 | 175 | 0.0 | 0.0 | 0.00 | 0.00 | 0.00 | 99 | 974.9 |
| 20260903233419 | 76 | 175 | 0.0 | 0.0 | 0.00 | 0.00 | 0.00 | 99 | 975.0 |
| 20260903232914 | 76 | 175 | 0.0 | 0.0 | 0.00 | 0.00 | 0.00 | 99 | 975.0 |
| 20260903232409 | 76 | 175 | 0.0 | 0.0 | 0.00 | 0.00 | 0.00 | 99 | 974.8 |
| 20260903231909 | 76 | 175 | 0.0 | 0.0 | 0.00 | 0.00 | 0.00 | 99 | 974.9 |
| 20260903231403 | 76 | 175 | 0.0 | 0.0 | 0.00 | 0.00 | 0.00 | 99 | 974.7 |
| 20260903230859 | 76 | 175 | 0.0 | 0.0 | 0.00 | 0.00 | 0.00 | 99 | 974.5 |
| 20260903230354 | 76 | 175 | 0.0 | 0.0 | 0.00 | 0.00 | 0.00 | 99 | 974.7 |
| 20260903225850 | 76 | 175 | 0.0 | 0.0 | 0.00 | 0.00 | 0.00 | 99 | 974.9 |
| 20260903225346 | 76 | 174 | 0.0 | 0.0 | 0.00 | 0.00 | 0.00 | 99 | 974.7 |
| 20260903224842 | 76 | 174 | 0.0 | 0.0 | 0.00 | 0.00 | 0.00 | 99 | 974.7 |
| 20260903224338 | 76 | 174 | 0.0 | 0.0 | 0.00 | 0.00 | 0.00 | 99 | 974.7 |
| 20260903223834 | 76 | 174 | 0.0 | 0.0 | 0.00 | 0.00 | 0.00 | 99 | 974.6 |
| 20260903223332 | 76 | 174 | 0.0 | 0.0 | 0.00 | 0.00 | 0.00 | 99 | 974.8 |
| 20260903222827 | 76 | 174 | 0.0 | 0.0 | 0.00 | 0.00 | 0.00 | 99 | 974.6 |
| 20260903222327 | 76 | 174 | 0.0 | 0.0 | 0.00 | 0.00 | 0.00 | 99 | 974.4 |
| 20260903221821 | 76 | 174 | 0.0 | 0.0 | 0.00 | 0.00 | 0.00 | 99 | 974.6 |
| 20260903221320 | 76 | 174 | 0.0 | 0.0 | 0.00 | 0.00 | 0.00 | 99 | 974.5 |
| 20260903220818 | 76 | 174 | 0.0 | 0.0 | 0.00 | 0.00 | 0.00 | 99 | 974.5 |
| 20260903220312 | 76 | 174 | 0.0 | 0.0 | 0.00 | 0.00 | 0.00 | 99 | 974.2 |
| 20260903215805 | 76 | 174 | 0.0 | 0.0 | 0.00 | 0.00 | 0.00 | 99 | 974.2 |
| 20260903215305 | 76 | 174 | 0.0 | 0.0 | 0.00 | 0.00 | 0.00 | 99 | 974.5 |
| 20260903214800 | 76 | 174 | 0.0 | 0.0 | 0.00 | 0.00 | 0.00 | 99 | 974.2 |
| 20260903214255 | 76 | 174 | 0.0 | 0.0 | 0.00 | 0.00 | 0.00 | 99 | 974.2 |
| 20260903213750 | 76 | 174 | 0.0 | 0.0 | 0.00 | 0.00 | 0.00 | 99 | 974.1 |
| 20260903213245 | 76 | 174 | 0.0 | 0.0 | 0.00 | 0.00 | 0.00 | 99 | 974.1 |
| 20260903212736 | 76 | 174 | 0.0 | 0.0 | 0.00 | 0.00 | 0.00 | 99 | 973.9 |
| 20260903212233 | 76 | 174 | 0.0 | 0.0 | 0.00 | 0.00 | 0.00 | 99 | 974.1 |
| 20260903211731 | 76 | 174 | 0.0 | 0.0 | 0.00 | 0.00 | 0.00 | 99 | 973.9 |
| 20260903211228 | 76 | 174 | 0.0 | 0.0 | 0.00 | 0.00 | 0.00 | 99 | 973.9 |
| 20260903210723 | 76 | 174 | 0.0 | 0.0 | 0.00 | 0.00 | 0.00 | 99 | 974.1 |
| 20260903210219 | 76 | 174 | 0.0 | 0.0 | 0.00 | 0.00 | 0.00 | 99 | 974.1 |
| 20260903205713 | 76 | 171 | 0.0 | 0.0 | 0.00 | 0.00 | 0.00 | 99 | 974.1 |
| 20260903205212 | 76 | 171 | 0.0 | 0.0 | 0.00 | 0.00 | 0.00 | 99 | 974.1 |
| 20260903204708 | 76 | 171 | 0.0 | 0.0 | 0.00 | 0.00 | 0.00 | 99 | 974.0 |
| 20260903204204 | 76 | 171 | 0.0 | 0.0 | 0.00 | 0.00 | 0.00 | 99 | 973.6 |
| 20260903203659 | 76 | 175 | 0.0 | 0.0 | 0.00 | 0.00 | 0.00 | 99 | 974.0 |
| 20260903203154 | 76 | 175 | 0.0 | 0.0 | 0.00 | 0.00 | 0.00 | 99 | 973.8 |
| 20260903202648 | 76 | 175 | 0.0 | 0.0 | 0.00 | 0.00 | 0.00 | 99 | 974.1 |
| 20260903202144 | 76 | 175 | 0.0 | 0.0 | 0.00 | 0.00 | 0.00 | 99 | 974.0 |
| 20260903201638 | 76 | 175 | 0.0 | 0.0 | 0.00 | 0.00 | 0.00 | 99 | 973.9 |
| 20260903201138 | 76 | 174 | 0.0 | 0.0 | 0.00 | 0.00 | 0.00 | 99 | 973.8 |
| 20260903200633 | 76 | 153 | 0.0 | 0.0 | 0.00 | 0.00 | 0.00 | 99 | 973.9 |
| 20260903200128 | 76 | 174 | 0.0 | 0.0 | 0.00 | 0.00 | 0.00 | 99 | 973.8 |
| 20260903195624 | 76 | 175 | 0.0 | 0.0 | 0.00 | 0.00 | 0.00 | 99 | 974.1 |
| 20260903195120 | 76 | 173 | 0.0 | 0.0 | 0.00 | 0.00 | 0.00 | 99 | 974.0 |
| 20260903194614 | 76 | 178 | 0.0 | 0.0 | 0.00 | 0.00 | 0.00 | 99 | 973.8 |
| 20260903194114 | 76 | 178 | 0.0 | 0.0 | 0.00 | 0.00 | 0.00 | 99 | 973.9 |
| 20260903193610 | 76 | 178 | 0.0 | 0.0 | 0.00 | 0.00 | 0.00 | 99 | 974.1 |
| 20260903193106 | 76 | 178 | 0.0 | 0.0 | 0.00 | 0.00 | 0.00 | 99 | 974.0 |
| 20260903192602 | 76 | 178 | 0.0 | 0.0 | 0.00 | 0.00 | 0.00 | 99 | 974.0 |
| 20260903192057 | 76 | 178 | 0.0 | 0.0 | 0.00 | 0.00 | 0.00 | 99 | 973.9 |
| 20260903191554 | 76 | 178 | 0.0 | 0.0 | 0.00 | 0.00 | 0.00 | 99 | 973.9 |
| 20260903191048 | 76 | 178 | 0.0 | 0.0 | 0.00 | 0.00 | 0.00 | 99 | 974.0 |
| 20260903190542 | 77 | 178 | 0.0 | 0.0 | 0.00 | 0.00 | 0.00 | 99 | 974.0 |
| 20260903190042 | 77 | 178 | 0.0 | 0.0 | 0.00 | 0.00 | 0.00 | 99 | 974.0 |
| 20260903185537 | 77 | 178 | 0.0 | 0.0 | 0.00 | 0.00 | 0.00 | 99 | 974.1 |
| 20260903185032 | 76 | 178 | 0.0 | 0.0 | 0.00 | 0.00 | 0.00 | 99 | 974.1 |
| 20260903184529 | 77 | 178 | 0.0 | 0.0 | 0.00 | 0.00 | 0.00 | 99 | 974.1 |
| 20260903184023 | 77 | 178 | 0.0 | 0.0 | 0.00 | 0.00 | 0.00 | 99 | 974.1 |
| 20260903183522 | 77 | 178 | 0.0 | 0.0 | 0.00 | 0.00 | 0.00 | 99 | 974.0 |
| 20260903183017 | 77 | 178 | 0.0 | 0.0 | 0.00 | 0.00 | 0.00 | 99 | 974.3 |
| 20260903182516 | 77 | 178 | 0.0 | 0.0 | 0.00 | 0.00 | 0.00 | 99 | 974.3 |
| 20260903182013 | 77 | 178 | 0.0 | 0.0 | 0.00 | 0.00 | 0.00 | 99 | 974.3 |
| 20260903181506 | 77 | 178 | 0.0 | 0.0 | 0.00 | 0.00 | 0.00 | 99 | 974.3 |
| 20260903181006 | 76 | 178 | 0.0 | 0.0 | 0.00 | 0.00 | 0.00 | 99 | 974.4 |
| 20260903180501 | 76 | 178 | 0.0 | 0.0 | 0.00 | 0.00 | 0.00 | 99 | 974.6 |
| 20260903175959 | 76 | 178 | 0.0 | 0.0 | 0.00 | 0.00 | 0.00 | 99 | 974.5 |
| 20260903175454 | 76 | 175 | 0.0 | 0.0 | 0.00 | 0.00 | 0.00 | 99 | 974.2 |
| 20260903174953 | 76 | 176 | 0.0 | 0.0 | 0.00 | 0.00 | 0.00 | 99 | 974.1 |
| 20260903174449 | 76 | 176 | 0.0 | 0.0 | 0.00 | 0.00 | 0.00 | 99 | 974.3 |
| 20260903173948 | 76 | 177 | 0.0 | 0.0 | 0.00 | 0.00 | 0.00 | 99 | 974.3 |
| 20260903173443 | 76 | 178 | 0.0 | 0.0 | 0.00 | 0.00 | 0.00 | 99 | 974.5 |
| 20260903172939 | 76 | 178 | 0.0 | 0.0 | 0.00 | 0.00 | 0.00 | 99 | 974.5 |
| 20260903172434 | 76 | 178 | 0.0 | 0.0 | 0.00 | 0.00 | 0.00 | 99 | 974.7 |
| 20260903171930 | 76 | 178 | 0.0 | 0.0 | 0.00 | 0.00 | 0.00 | 99 | 974.8 |
| 20260903171425 | 76 | 178 | 0.0 | 0.0 | 0.00 | 0.00 | 0.00 | 99 | 974.7 |
| 20260903170924 | 76 | 178 | 0.0 | 0.0 | 0.00 | 0.00 | 0.00 | 99 | 974.6 |
| 20260903170419 | 76 | 178 | 0.0 | 0.0 | 0.00 | 0.00 | 0.00 | 99 | 974.9 |
| 20260903165918 | 76 | 178 | 0.0 | 0.0 | 0.00 | 0.28 | 0.28 | 99 | 974.8 |
| 20260903165413 | 76 | 178 | 0.0 | 0.0 | 0.00 | 0.28 | 0.28 | 99 | 975.0 |
| 20260903164907 | 76 | 178 | 0.0 | 0.0 | 0.00 | 0.28 | 0.28 | 99 | 974.8 |
| 20260903164402 | 76 | 178 | 0.0 | 0.0 | 0.00 | 0.28 | 0.28 | 99 | 974.8 |
| 20260903163902 | 76 | 178 | 0.0 | 0.0 | 0.00 | 0.28 | 0.28 | 99 | 974.7 |
| 20260903163358 | 76 | 178 | 0.0 | 0.0 | 0.00 | 0.28 | 0.28 | 99 | 975.0 |
| 20260903162854 | 76 | 178 | 0.0 | 0.0 | 0.00 | 0.28 | 0.28 | 99 | 975.1 |
| 20260903162350 | 76 | 178 | 0.0 | 0.0 | 0.00 | 0.28 | 0.28 | 99 | 975.0 |
| 20260903161846 | 76 | 178 | 0.0 | 0.0 | 0.00 | 0.28 | 0.28 | 99 | 975.0 |
| 20260903161341 | 76 | 178 | 0.0 | 0.0 | 0.00 | 0.28 | 0.28 | 99 | 975.1 |
| 20260903160837 | 76 | 178 | 0.0 | 0.0 | 0.00 | 0.28 | 0.28 | 99 | 975.1 |
| 20260903160335 | 76 | 178 | 0.0 | 0.0 | 0.00 | 0.28 | 0.28 | 99 | 975.0 |
| 20260903155834 | 76 | 178 | 0.0 | 0.0 | 0.00 | 0.28 | 0.28 | 99 | 975.0 |
| 20260903155330 | 76 | 178 | 0.0 | 0.0 | 0.00 | 0.28 | 0.28 | 99 | 974.9 |
| 20260903154825 | 76 | 178 | 0.0 | 0.0 | 0.00 | 0.28 | 0.28 | 99 | 974.8 |
| 20260903154321 | 76 | 178 | 0.0 | 0.0 | 0.00 | 0.28 | 0.28 | 99 | 974.9 |
| 20260903153816 | 76 | 178 | 0.0 | 0.0 | 0.00 | 0.28 | 0.28 | 99 | 974.9 |
| 20260903153312 | 76 | 178 | 0.0 | 0.0 | 0.00 | 0.28 | 0.28 | 99 | 974.8 |
| 20260903152808 | 76 | 177 | 0.0 | 0.0 | 0.00 | 0.28 | 0.28 | 99 | 975.0 |
| 20260903152306 | 76 | 177 | 0.0 | 0.0 | 0.00 | 0.28 | 0.28 | 99 | 974.8 |
| 20260903151758 | 76 | 180 | 0.0 | 0.0 | 0.00 | 0.28 | 0.28 | 99 | 974.7 |
| 20260903151254 | 76 | 177 | 0.0 | 0.0 | 0.00 | 0.28 | 0.28 | 99 | 974.7 |
| 20260903150754 | 76 | 177 | 0.0 | 0.0 | 0.00 | 0.28 | 0.28 | 99 | 974.9 |
| 20260903150248 | 76 | 177 | 0.0 | 0.0 | 0.00 | 0.28 | 0.28 | 99 | 974.9 |
| 20260903145744 | 76 | 177 | 0.0 | 0.0 | 0.00 | 0.28 | 0.28 | 99 | 974.8 |
| 20260903145239 | 76 | 177 | 0.0 | 0.0 | 0.00 | 0.28 | 0.28 | 99 | 974.7 |
| 20260903144737 | 76 | 177 | 0.0 | 0.0 | 0.00 | 0.28 | 0.28 | 99 | 975.1 |
| 20260903144233 | 76 | 177 | 0.0 | 0.0 | 0.00 | 0.28 | 0.28 | 99 | 975.0 |
| 20260903143729 | 76 | 177 | 0.0 | 0.0 | 0.00 | 0.28 | 0.28 | 99 | 974.8 |
| 20260903143225 | 76 | 177 | 0.0 | 0.0 | 0.00 | 0.28 | 0.28 | 99 | 975.0 |
| 20260903142720 | 77 | 177 | 0.0 | 0.0 | 0.00 | 0.28 | 0.28 | 99 | 974.7 |
| 20260903142216 | 77 | 176 | 0.0 | 0.0 | 0.00 | 0.28 | 0.28 | 99 | 974.8 |
| 20260903141712 | 77 | 176 | 0.0 | 0.0 | 0.00 | 0.28 | 0.28 | 99 | 974.1 |
| 20260903141207 | 77 | 176 | 0.0 | 0.0 | 0.00 | 0.28 | 0.28 | 99 | 974.3 |
| 20260903140703 | 77 | 176 | 0.0 | 0.0 | 0.00 | 0.28 | 0.28 | 99 | 974.3 |
| 20260903140157 | 77 | 176 | 0.0 | 0.0 | 0.00 | 0.28 | 0.28 | 99 | 974.1 |
| 20260903135653 | 77 | 176 | 0.0 | 0.0 | 0.00 | 0.28 | 0.28 | 99 | 974.1 |
| 20260903135148 | 77 | 176 | 0.0 | 0.0 | 0.00 | 0.28 | 0.28 | 99 | 974.1 |
| 20260903134647 | 77 | 176 | 0.0 | 0.0 | 0.00 | 0.28 | 0.28 | 99 | 974.0 |
| 20260903134143 | 77 | 176 | 0.0 | 0.0 | 0.00 | 0.28 | 0.28 | 99 | 974.0 |
| 20260903133640 | 77 | 176 | 0.0 | 0.0 | 0.00 | 0.28 | 0.28 | 99 | 973.6 |
| 20260903133136 | 77 | 176 | 0.0 | 0.0 | 0.00 | 0.28 | 0.28 | 99 | 973.4 |
| 20260903132630 | 77 | 176 | 0.0 | 0.0 | 0.00 | 0.28 | 0.28 | 99 | 973.4 |
| 20260903132125 | 77 | 176 | 0.0 | 0.0 | 0.00 | 0.28 | 0.28 | 99 | 973.6 |
| 20260903131620 | 77 | 176 | 0.0 | 0.0 | 0.00 | 0.28 | 0.28 | 99 | 973.5 |
| 20260903131119 | 77 | 176 | 0.0 | 0.0 | 0.00 | 0.28 | 0.28 | 99 | 973.3 |
| 20260903130616 | 77 | 176 | 0.0 | 0.0 | 0.00 | 0.28 | 0.28 | 99 | 973.3 |
| 20260903130109 | 77 | 176 | 0.0 | 0.0 | 0.00 | 0.28 | 0.28 | 99 | 973.3 |
| 20260903125607 | 77 | 176 | 0.0 | 0.0 | 0.00 | 0.28 | 0.28 | 99 | 973.1 |
| 20260903125103 | 77 | 176 | 0.0 | 0.0 | 0.00 | 0.28 | 0.28 | 99 | 973.0 |
| 20260903124603 | 77 | 176 | 0.0 | 0.0 | 0.00 | 0.28 | 0.28 | 99 | 973.3 |
| 20260903124102 | 77 | 176 | 0.0 | 0.0 | 0.00 | 0.28 | 0.28 | 99 | 973.1 |
| 20260903123602 | 77 | 176 | 0.0 | 0.0 | 0.00 | 0.28 | 0.28 | 99 | 973.1 |
| 20260903123100 | 77 | 176 | 0.0 | 0.0 | 0.00 | 0.28 | 0.28 | 99 | 973.1 |
| 20260903122555 | 77 | 175 | 0.0 | 0.0 | 0.00 | 0.28 | 0.28 | 99 | 973.1 |
| 20260903122055 | 77 | 175 | 0.0 | 0.0 | 0.00 | 0.28 | 0.28 | 99 | 972.9 |
| 20260903121549 | 77 | 175 | 0.0 | 0.0 | 0.00 | 0.28 | 0.28 | 99 | 972.9 |
| 20260903121045 | 77 | 175 | 0.0 | 0.0 | 0.00 | 0.28 | 0.28 | 99 | 972.9 |
| 20260903120544 | 77 | 175 | 0.0 | 0.0 | 0.00 | 0.28 | 0.28 | 99 | 972.8 |
| 20260903120039 | 77 | 175 | 0.0 | 0.0 | 0.00 | 0.28 | 0.28 | 99 | 972.8 |
| 20260903115537 | 77 | 175 | 0.0 | 0.0 | 0.00 | 0.28 | 0.28 | 99 | 972.7 |
| 20260903115032 | 77 | 175 | 0.0 | 0.0 | 0.00 | 0.28 | 0.28 | 99 | 973.0 |
| 20260903114527 | 77 | 175 | 0.0 | 0.0 | 0.00 | 0.28 | 0.28 | 99 | 972.8 |
| 20260903114023 | 77 | 175 | 0.0 | 0.0 | 0.00 | 0.28 | 0.28 | 99 | 972.6 |
| 20260903113518 | 77 | 175 | 0.0 | 0.0 | 0.00 | 0.28 | 0.28 | 99 | 972.8 |
| 20260903113015 | 77 | 175 | 0.0 | 0.0 | 0.00 | 0.00 | 0.00 | 99 | 972.6 |
| 20260903112510 | 77 | 175 | 0.0 | 0.0 | 0.00 | 0.00 | 0.00 | 99 | 972.6 |
| 20260903112009 | 77 | 175 | 0.0 | 0.0 | 0.00 | 0.00 | 0.00 | 99 | 972.4 |
| 20260903111503 | 77 | 172 | 0.0 | 0.0 | 0.00 | 0.00 | 0.00 | 99 | 972.6 |
| 20260903111000 | 78 | 169 | 0.0 | 0.0 | 0.00 | 0.00 | 0.00 | 99 | 972.5 |
| 20260903110455 | 78 | 169 | 0.0 | 0.0 | 0.00 | 0.00 | 0.00 | 99 | 972.2 |
| 20260903105949 | 78 | 169 | 0.0 | 0.0 | 0.00 | 0.00 | 0.00 | 99 | 972.1 |
| 20260903105445 | 78 | 169 | 0.0 | 0.0 | 0.00 | 0.00 | 0.00 | 99 | 972.2 |
| 20260903104944 | 78 | 169 | 0.0 | 0.0 | 0.00 | 0.00 | 0.00 | 99 | 972.0 |
| 20260903104444 | 77 | 169 | 0.0 | 0.0 | 0.00 | 0.00 | 0.00 | 99 | 972.1 |
| 20260903103941 | 78 | 170 | 0.0 | 0.0 | 0.00 | 0.00 | 0.00 | 99 | 972.1 |
| 20260903103436 | 77 | 169 | 0.0 | 0.0 | 0.00 | 0.00 | 0.00 | 99 | 971.9 |
| 20260903102932 | 77 | 167 | 0.0 | 0.0 | 0.00 | 0.00 | 0.00 | 99 | 972.1 |
| 20260903102427 | 77 | 164 | 0.0 | 0.0 | 0.00 | 0.00 | 0.00 | 99 | 971.8 |
| 20260903101926 | 78 | 164 | 0.0 | 0.0 | 0.00 | 0.00 | 0.00 | 99 | 971.8 |
| 20260903101421 | 78 | 169 | 0.0 | 0.0 | 0.00 | 0.00 | 0.00 | 99 | 971.8 |
| 20260903100916 | 78 | 169 | 0.0 | 0.0 | 0.00 | 0.00 | 0.00 | 99 | 972.0 |
| 20260903100411 | 78 | 169 | 0.0 | 0.0 | 0.00 | 0.00 | 0.00 | 99 | 972.1 |
| 20260903095908 | 78 | 169 | 0.0 | 0.0 | 0.00 | 0.00 | 0.00 | 99 | 971.8 |
| 20260903095403 | 77 | 169 | 0.0 | 0.0 | 0.00 | 0.00 | 0.00 | 99 | 972.0 |
| 20260903094857 | 77 | 169 | 0.0 | 0.0 | 0.00 | 0.00 | 0.00 | 99 | 971.9 |
| 20260903094352 | 77 | 169 | 0.0 | 0.0 | 0.00 | 0.00 | 0.00 | 99 | 972.1 |
| 20260903093848 | 77 | 169 | 0.0 | 0.0 | 0.00 | 0.00 | 0.00 | 99 | 972.2 |
| 20260903093342 | 77 | 169 | 0.0 | 0.0 | 0.00 | 0.00 | 0.00 | 99 | 971.9 |
| 20260903092837 | 76 | 168 | 0.0 | 0.0 | 0.00 | 0.00 | 0.00 | 99 | 971.9 |